Probability
0 0 0 0 0 0 0 0 0 0 0 0 0 0 0 0 0 0 0 0 0 0 0 0 0 0 0 0 0 0 0 0 0 6 3 10 10 6 3 0 3 0 0 0
0 0 0 0 0 0 0 0 0 0 0 0 0 0 0 0 0 0 0 0 0 0 0 0 0 0 0 0 0 0 0 0 0 0 0 0 3 3 0 3 3 0 0 0
0 0 0 0 0 0 0 0 0 0 0 0 0 0 0 0 0 0 0 0 0 0 0 0 0 0 0 0 0 0 0 0 0 0 0 0 0 0 0 0 0 3 0 0
0 0 0 0 0 0 0 0 0 0 0 0 0 0 0 0 0 0 0 0 0 0 0 0 0 0 0 0 0 0 0 0 0 0 0 0 0 0 0 0 0 0 0 0
0 0 0 0 0 0 0 0 0 0 0 0 0 0 0 0 0 0 0 0 0 0 0 0 0 0 0 0 0 0 0 0 0 0 0 0 0 0 0 0 0 0 0 0
0 0 0 0 0 0 0 0 0 0 0 0 0 0 0 0 0 0 0 0 0 0 0 0 0 0 0 0 0 0 0 0 0 0 0 0 0 0 0 0 0 0 0 0
0 0 0 0 0 0 0 0 0 0 0 0 0 0 0 0 0 0 0 0 0 0 0 0 0 0 0 0 0 0 0 0 0 0 0 0 0 0 0 0 0 0 0 0
0 0 0 0 0 0 0 0 0 0 0 0 0 0 0 0 0 0 0 0 0 0 0 0 0 0 0 0 0 0 0 0 0 0 0 0 0 0 0 0 0 0 0 0
0 0 0 0 0 0 0 0 0 0 0 0 0 0 0 0 0 0 0 0 0 0 0 0 0 0 0 0 0 0 0 0 0 0 0 0 0 0 0 0 0 0 0 0
0 0 0 0 0 0 0 0 0 0 0 0 0 0 0 0 0 0 0 0 0 0 0 0 0 0 0 0 0 0 0 0 0 0 0 0 0 0 0 0 0 0 0 0
0 0 0 0 0 0 0 0 0 0 0 0 0 0 0 0 0 0 0 0 0 0 0 0 0 0 0 0 0 0 0 0 0 0 0 0 0 0 0 0 0 0 0 0
0 0 0 0 0 0 0 0 0 0 0 0 0 0 0 0 0 0 0 0 0 0 0 0 0 0 0 0 0 0 0 0 0 0 0 0 0 0 0 0 0 0 0 0
0 0 0 0 0 0 0 0 0 0 0 0 0 0 0 0 0 0 0 0 0 0 0 0 0 0 0 0 0 0 0 0 0 0 0 0 0 0 0 0 0 0 0 0
0 0 0 0 0 0 0 0 0 0 0 0 0 0 0 0 0 0 0 0 0 0 0 0 0 0 0 0 0 0 0 0 0 0 0 0 0 0 0 0 0 0 0 0
0 0 0 0 0 0 0 0 0 0 0 0 0 0 0 0 0 0 0 0 0 0 0 0 0 0 0 0 0 0 0 0 0 0 0 0 0 0 0 0 0 0 0 0
0 0 0 0 0 0 0 0 0 0 0 0 0 0 0 0 0 0 0 0 0 0 0 0 0 0 0 0 0 0 0 0 0 0 0 0 0 0 0 0 0 0 0 0
0 0 0 0 0 0 0 0 0 0 0 0 0 0 0 0 0 0 0 0 0 0 0 0 0 0 0 0 0 0 0 0 0 0 0 0 0 0 0 0 0 0 0 0
0 0 0 0 0 0 0 0 0 0 0 0 0 0 0 0 0 0 0 0 0 0 0 0 0 0 0 0 0 0 0 0 0 0 0 0 0 0 0 0 0 0 0 0
0 0 0 0 0 0 0 0 0 0 0 0 0 0 0 0 0 0 0 0 0 0 0 0 0 0 0 0 0 0 0 0 0 0 0 0 0 0 0 0 0 0 0 0
0 0 0 0 0 0 0 0 0 0 0 0 0 0 0 0 0 0 0 0 0 0 0 0 0 0 0 0 0 0 0 0 0 0 0 0 0 0 0 0 0 0 0 0
0 0 0 0 0 0 0 0 0 0 0 0 0 0 0 0 0 0 0 0 0 0 0 0 0 0 0 0 0 0 0 0 0 0 0 0 0 0 0 0 0 0 0 0
0 0 0 0 0 0 0 0 0 0 0 0 0 0 0 0 0 0 0 0 0 0 0 0 0 0 0 0 0 0 0 0 0 0 0 0 0 0 0 0 0 0 0 0
0 0 0 0 0 0 0 0 0 0 0 0 0 0 0 0 0 0 0 0 0 0 0 0 0 0 0 0 0 0 0 0 0 0 0 0 0 0 0 0 0 0 0 0
0 0 0 0 0 0 0 0 0 0 0 0 0 0 0 0 0 0 0 0 0 0 0 0 0 0 0 0 0 0 0 0 0 0 0 0 0 0 0 0 0 0 0 0
0 0 0 0 0 0 0 0 0 0 0 0 0 0 0 0 0 0 0 0 0 0 0 0 0 0 0 0 0 0 0 0 0 0 0 0 0 0 0 0 0 0 0 0
0 0 0 0 0 0 0 0 0 0 0 0 0 0 0 0 0 0 0 0 0 0 0 0 0 0 0 0 0 0 0 0 0 0 0 0 0 0 0 0 0 0 0 0
Height
5637 5646 5656 5668 5678 5687 5692 5698 5704 5711 5716 5723 5730 5736 5742 5748 5756 5762 5767 5772 5777 5781 5786 5790 5793 5796 5799 5801 5802 5804 5806 5807 5808 5809 5809 5810 5810 5810 5809 5808 5807 5806 5804 5803
5637 5646 5657 5664 5672 5678 5684 5691 5699 5703 5710 5719 5724 5730 5737 5742 5750 5756 5761 5766 5771 5775 5779 5784 5787 5789 5792 5794 5796 5797 5799 5800 5801 5802 5802 5802 5802 5802 5802 5800 5799 5797 5795 5793
5638 5647 5654 5661 5668 5675 5682 5689 5695 5699 5708 5714 5719 5725 5731 5737 5744 5750 5755 5760 5764 5768 5772 5776 5780 5783 5785 5787 5789 5790 5792 5793 5793 5794 5794 5794 5793 5793 5792 5792 5790 5788 5786 5784
5636 5644 5651 5658 5665 5672 5679 5685 5690 5696 5704 5709 5714 5719 5725 5731 5738 5744 5749 5753 5758 5762 5766 5770 5773 5775 5777 5779 5781 5782 5784 5785 5785 5786 5785 5785 5784 5784 5783 5781 5780 5778 5776 5774
5636 5643 5649 5656 5663 5669 5675 5681 5687 5694 5699 5703 5709 5714 5719 5726 5732 5738 5743 5747 5751 5755 5759 5762 5765 5768 5770 5771 5772 5774 5775 5776 5776 5777 5776 5776 5775 5774 5773 5771 5769 5768 5766 5764
5636 5642 5647 5653 5659 5665 5671 5678 5683 5688 5693 5699 5705 5710 5714 5721 5727 5733 5737 5741 5745 5749 5752 5755 5758 5760 5762 5763 5764 5765 5766 5767 5767 5767 5767 5766 5765 5764 5762 5761 5759 5757 5755 5753
5635 5640 5645 5651 5656 5662 5668 5675 5680 5683 5688 5694 5700 5705 5709 5715 5722 5727 5731 5735 5739 5742 5745 5748 5750 5752 5754 5755 5756 5757 5758 5758 5758 5758 5757 5756 5755 5754 5752 5750 5749 5746 5744 5741
5634 5639 5644 5648 5654 5659 5665 5671 5676 5681 5685 5691 5695 5699 5704 5710 5717 5721 5725 5728 5732 5735 5737 5740 5742 5744 5745 5747 5748 5748 5749 5749 5749 5748 5748 5746 5745 5744 5742 5740 5738 5735 5732 5729
5634 5638 5642 5647 5652 5657 5661 5666 5672 5677 5681 5685 5690 5694 5699 5705 5710 5714 5718 5721 5724 5727 5730 5732 5734 5735 5737 5738 5739 5740 5740 5740 5739 5739 5738 5737 5735 5734 5732 5730 5727 5724 5720 5716
5634 5638 5641 5645 5649 5653 5658 5662 5667 5672 5676 5680 5685 5689 5695 5700 5704 5708 5711 5714 5717 5720 5722 5724 5725 5727 5729 5730 5731 5731 5731 5731 5730 5729 5728 5727 5725 5723 5721 5719 5716 5712 5708 5703
5635 5638 5641 5644 5647 5651 5655 5660 5663 5668 5672 5676 5679 5685 5688 5693 5696 5700 5703 5706 5709 5712 5714 5716 5718 5719 5721 5722 5722 5722 5722 5722 5721 5720 5719 5717 5715 5713 5711 5708 5705 5701 5696 5691
5634 5637 5640 5643 5646 5649 5652 5656 5660 5664 5668 5672 5675 5680 5682 5686 5690 5693 5696 5699 5702 5704 5706 5709 5710 5712 5713 5714 5714 5715 5714 5714 5713 5712 5710 5708 5706 5704 5701 5698 5694 5690 5685 5679
5633 5636 5638 5641 5646 5647 5650 5653 5656 5660 5664 5667 5670 5675 5677 5680 5683 5686 5689 5692 5695 5697 5700 5702 5704 5705 5706 5707 5707 5707 5706 5706 5705 5703 5702 5700 5697 5695 5692 5689 5685 5680 5675 5669
5631 5634 5637 5640 5643 5645 5648 5650 5653 5656 5659 5663 5666 5668 5672 5675 5678 5681 5683 5686 5689 5691 5693 5695 5697 5698 5699 5699 5699 5699 5699 5698 5697 5695 5693 5691 5689 5687 5683 5680 5676 5671 5666 5660
5629 5632 5634 5636 5639 5642 5644 5647 5649 5652 5656 5659 5661 5663 5668 5671 5674 5676 5678 5681 5683 5686 5688 5689 5691 5692 5692 5693 5692 5692 5691 5690 5689 5688 5686 5684 5681 5679 5676 5672 5668 5663 5658 5652
5627 5629 5631 5633 5635 5638 5640 5643 5646 5649 5651 5654 5657 5660 5663 5666 5669 5671 5674 5676 5678 5681 5682 5684 5685 5686 5686 5686 5686 5685 5685 5684 5682 5680 5678 5676 5674 5671 5668 5665 5661 5656 5651 5645
5624 5626 5629 5631 5632 5634 5638 5641 5643 5646 5648 5651 5654 5658 5659 5663 5665 5667 5669 5672 5674 5676 5678 5679 5679 5680 5680 5680 5680 5679 5678 5677 5675 5674 5672 5669 5667 5665 5661 5658 5654 5649 5644 5639
5622 5624 5626 5628 5631 5633 5638 5638 5640 5642 5645 5648 5651 5653 5656 5658 5661 5663 5665 5667 5669 5671 5673 5674 5674 5675 5675 5675 5675 5674 5673 5671 5669 5667 5665 5663 5661 5658 5655 5652 5648 5643 5639 5634
5621 5623 5624 5626 5628 5631 5634 5635 5637 5640 5642 5645 5647 5649 5652 5654 5656 5659 5661 5663 5665 5666 5668 5669 5669 5670 5670 5670 5669 5668 5667 5665 5663 5662 5660 5658 5655 5652 5649 5646 5642 5638 5634 5629
5619 5621 5623 5624 5626 5629 5633 5633 5634 5638 5640 5642 5643 5645 5647 5650 5653 5655 5657 5658 5660 5661 5663 5664 5665 5665 5665 5665 5664 5663 5662 5660 5658 5656 5654 5652 5650 5647 5644 5641 5637 5633 5629 5625
5617 5618 5620 5622 5624 5627 5629 5630 5632 5636 5638 5638 5640 5641 5643 5646 5649 5651 5652 5654 5655 5657 5658 5659 5660 5661 5661 5660 5659 5658 5657 5655 5653 5652 5650 5647 5645 5642 5639 5636 5633 5629 5625 5621
5613 5615 5617 5619 5621 5626 5626 5627 5630 5632 5633 5634 5635 5637 5639 5641 5643 5645 5647 5649 5651 5652 5654 5655 5655 5656 5655 5655 5654 5653 5652 5650 5649 5647 5645 5643 5640 5638 5635 5632 5628 5625 5621 5618
5610 5612 5613 5616 5620 5620 5621 5623 5625 5627 5628 5630 5631 5633 5635 5637 5639 5641 5643 5644 5646 5647 5649 5649 5650 5650 5650 5649 5649 5648 5647 5645 5644 5642 5640 5638 5636 5633 5630 5627 5624 5621 5618 5614
5604 5606 5608 5611 5613 5615 5616 5618 5620 5622 5623 5625 5627 5628 5630 5632 5634 5636 5638 5639 5641 5642 5643 5644 5644 5644 5644 5644 5643 5642 5641 5640 5639 5637 5636 5633 5631 5629 5626 5623 5620 5617 5614 5610
5598 5600 5602 5604 5607 5609 5611 5613 5614 5616 5618 5619 5621 5623 5624 5626 5628 5630 5632 5633 5635 5636 5637 5638 5638 5638 5638 5638 5637 5637 5636 5634 5633 5632 5630 5628 5626 5624 5621 5618 5616 5613 5610 5606
5590 5592 5595 5598 5600 5602 5605 5607 5608 5610 5612 5613 5615 5616 5618 5620 5621 5623 5625 5627 5628 5629 5630 5631 5631 5632 5632 5631 5631 5630 5629 5628 5627 5626 5624 5623 5621 5618 5616 5613 5611 5607 5604 5601
Wind_Speed
44 45 44 42 41 40 41 43 43 43 44 43 43 45 46 46 42 40 41 41 41 40 38 37 36 35 35 34 35 35 35 35 35 35 36 36 37 37 39 40 41 42 43 44
41 42 40 40 41 42 43 44 43 43 43 42 42 43 45 46 42 40 40 40 41 40 38 37 36 35 35 34 35 35 36 36 36 37 38 39 40 40 40 42 43 44 45 47
36 37 39 41 42 42 43 42 42 44 41 39 40 42 43 46 42 39 39 39 39 38 38 36 35 34 34 34 34 35 36 37 38 39 39 40 41 42 42 43 44 45 47 48
34 36 38 39 40 41 42 42 41 41 38 37 38 40 41 42 42 40 38 37 37 37 36 35 35 35 35 35 35 36 36 37 38 39 40 41 42 43 44 45 45 46 47 49
33 33 35 37 38 39 42 41 39 38 37 38 37 38 40 39 39 40 39 38 37 36 36 36 36 36 36 37 37 37 38 38 38 39 40 42 43 43 44 45 46 47 48 49
31 32 34 36 37 40 40 40 38 37 37 38 36 36 38 37 36 37 37 38 37 37 37 37 37 38 38 38 39 39 39 39 39 40 40 41 42 43 44 45 45 46 48 49
30 31 32 34 36 38 39 39 38 38 38 38 36 36 37 36 35 34 35 36 36 37 37 37 38 38 38 38 38 38 38 38 39 39 40 41 42 42 43 44 45 46 48 49
28 29 31 33 35 36 37 38 39 38 38 38 37 37 38 35 32 33 34 34 35 35 35 36 36 36 36 37 37 37 37 38 38 39 39 40 40 41 41 43 44 46 47 49
25 26 28 29 31 34 36 37 37 37 37 38 38 38 38 35 33 33 33 33 33 34 34 34 35 35 35 35 35 35 36 36 37 37 38 38 39 40 40 42 43 44 46 48
22 23 24 25 27 30 32 33 34 36 36 36 37 37 37 35 33 33 33 33 32 33 33 33 34 34 34 34 34 34 34 35 35 36 36 37 37 39 40 40 41 43 45 47
19 21 21 22 24 26 27 30 32 33 35 34 34 36 36 35 34 34 33 33 33 32 32 32 32 32 32 32 32 32 32 33 33 34 35 36 37 37 38 38 39 41 44 46
17 19 20 20 21 23 25 26 29 31 32 32 33 35 32 31 32 32 32 32 32 32 31 31 31 30 30 30 30 30 31 31 32 32 33 35 35 35 36 36 38 40 42 44
16 18 19 19 20 21 22 23 26 28 29 29 30 33 28 27 29 30 30 31 31 30 30 29 28 28 28 28 28 29 29 29 30 31 32 32 32 33 34 35 36 38 39 41
15 17 18 18 18 19 19 21 23 24 25 26 28 29 25 25 26 27 28 28 28 27 27 26 26 25 26 26 26 27 27 28 29 29 30 30 31 32 32 33 35 36 37 39
16 16 17 18 19 20 21 21 22 22 22 23 25 25 23 23 24 25 26 25 25 24 24 24 24 24 24 24 25 25 26 27 28 29 29 29 30 31 32 32 33 34 34 35
15 16 17 18 19 21 21 21 21 21 21 22 23 22 21 21 22 23 23 23 23 23 22 22 22 21 21 21 22 24 25 27 28 29 28 29 29 30 30 31 31 32 32 32
13 15 16 17 18 19 18 18 18 18 19 21 21 20 20 20 21 21 21 22 22 21 21 20 19 18 18 19 20 21 23 25 26 26 27 27 28 28 28 29 29 29 30 29
12 13 14 15 16 16 15 16 17 18 19 19 19 20 19 19 20 20 20 20 20 19 18 17 16 16 16 17 18 20 21 23 24 24 24 25 25 26 26 27 27 27 26 26
11 12 13 13 14 14 14 15 16 16 17 17 18 18 18 18 19 19 18 18 17 17 16 16 15 15 16 16 17 19 20 21 22 22 22 22 23 23 23 24 24 24 23 23
12 12 12 13 13 13 13 14 15 16 16 16 17 17 17 17 17 17 17 16 15 15 15 15 15 15 15 15 16 17 18 19 20 20 20 20 20 20 21 21 21 21 21 20
14 13 13 13 13 13 13 14 15 15 14 16 16 16 17 17 17 17 16 15 15 15 15 15 15 15 15 15 15 16 17 18 18 18 19 19 19 19 20 20 19 19 19 19
16 16 15 15 15 14 14 15 15 14 15 16 16 17 18 18 17 17 17 16 16 16 16 16 16 16 15 15 16 16 17 17 18 18 18 18 18 19 19 19 19 19 19 19
19 19 19 18 17 16 16 17 16 17 17 17 17 18 19 19 19 19 19 18 17 17 17 17 17 17 16 16 17 17 18 18 18 18 19 19 19 19 19 19 19 19 19 19
23 23 22 21 20 19 19 19 19 19 20 20 19 20 21 21 21 21 21 20 20 19 18 18 18 17 17 17 18 18 19 19 19 19 20 20 19 19 19 19 19 19 20 20
27 26 26 24 23 23 22 21 21 21 21 21 22 22 22 23 23 23 23 23 22 21 20 20 19 19 19 19 19 19 20 20 21 21 21 21 21 20 21 21 21 21 21 21
30 29 29 28 27 27 25 23 23 23 23 23 23 23 24 24 24 24 24 24 24 23 23 22 22 21 20 20 20 21 21 22 22 22 22 22 22 22 22 22 22 23 23 23
Wind_Direction
204 208 211 214 215 216 218 218 221 224 225 225 225 221 221 223 223 227 231 233 234 235 236 238 242 245 248 251 253 256 258 260 263 268 272 275 277 279 281 283 284 285 285 285
202 206 207 209 210 212 216 217 219 223 224 225 226 224 221 223 223 227 232 235 237 239 240 242 244 247 250 253 254 256 259 261 264 268 272 275 278 280 281 282 283 283 282 282
201 203 206 208 209 211 216 219 220 223 223 225 227 227 224 224 225 228 232 236 238 240 242 244 247 250 254 256 257 258 260 263 266 270 273 276 279 280 281 281 280 280 280 280
198 202 205 208 210 212 216 218 221 223 223 224 225 227 226 224 226 228 232 236 239 241 244 248 251 254 257 260 262 263 264 266 269 272 274 276 278 279 280 280 279 279 278 278
194 199 205 208 210 212 214 217 221 223 223 225 225 228 227 224 226 228 232 237 241 244 248 251 255 258 261 263 266 268 269 270 272 273 274 276 277 278 279 279 279 279 279 279
194 198 203 207 210 212 213 215 220 223 223 225 225 228 231 226 227 230 234 238 242 247 251 254 257 260 262 264 266 268 270 271 272 273 274 276 277 278 278 279 280 280 281 281
196 200 205 208 211 212 213 216 219 222 223 224 225 228 232 229 228 232 235 238 242 247 251 254 257 259 261 263 264 266 268 269 270 272 273 275 276 278 279 281 282 283 284 284
198 203 206 209 212 213 216 218 220 223 225 225 226 227 232 233 231 233 236 240 243 247 250 253 255 257 259 260 262 264 265 268 270 272 273 275 277 279 281 283 285 286 287 287
197 201 204 209 212 215 218 219 221 224 227 227 227 228 233 236 236 237 239 242 245 247 249 252 254 255 257 259 261 263 265 267 269 271 274 276 279 282 285 287 288 289 291 291
202 204 205 208 211 216 219 220 221 223 227 232 233 233 234 237 239 240 242 243 245 246 247 249 251 253 256 258 260 263 265 268 271 274 277 280 282 285 288 290 291 293 294 295
203 204 205 208 211 215 218 219 221 225 228 232 237 238 235 238 239 240 241 242 243 243 245 246 249 252 255 258 261 263 266 270 273 277 280 282 285 288 290 292 294 296 297 298
205 206 208 210 212 215 217 218 220 224 227 230 236 241 238 238 239 239 239 240 240 242 243 246 249 252 255 258 261 265 269 272 276 279 282 285 287 289 291 294 297 299 300 302
211 212 214 215 217 219 220 221 224 225 228 229 233 240 238 237 237 237 238 239 240 242 244 246 249 252 255 259 264 268 272 275 279 282 285 287 288 290 293 295 297 302 304 306
216 217 220 224 224 224 226 228 229 229 229 229 234 240 238 236 236 236 238 239 241 243 245 248 251 255 259 263 268 272 275 279 282 284 286 287 288 291 294 297 300 304 306 309
221 220 222 224 225 227 230 231 232 231 230 229 232 238 236 234 235 237 239 241 244 245 247 250 255 259 263 268 272 276 278 281 283 286 286 287 290 291 294 298 302 304 307 311
225 225 226 227 229 230 233 234 233 230 229 229 232 236 235 232 235 238 240 242 244 245 248 253 257 260 266 272 275 278 280 284 285 286 287 288 291 292 295 299 303 306 309 313
227 227 229 229 230 230 229 230 228 226 225 226 228 232 233 233 236 238 239 239 241 244 247 250 255 261 268 275 279 282 285 287 287 288 288 290 292 294 297 302 305 308 311 315
226 225 226 225 227 226 222 222 221 222 224 227 229 233 235 235 235 235 236 237 238 240 244 249 256 263 270 277 283 287 289 290 290 291 292 294 295 297 301 304 307 310 314 317
226 224 225 226 227 223 220 222 223 224 225 228 231 234 235 234 233 232 233 235 236 241 246 252 257 264 272 280 287 291 294 295 294 294 294 296 299 301 304 308 311 314 317 321
230 230 230 230 230 228 223 229 230 230 231 234 235 236 236 234 232 231 234 236 240 244 248 253 258 266 273 282 290 295 299 299 298 297 297 299 302 305 308 311 314 317 320 324
237 237 238 237 236 233 231 236 235 236 238 240 239 237 236 235 233 234 237 241 244 247 251 255 260 268 275 283 291 297 300 301 299 298 298 301 304 307 310 312 315 318 322 325
241 242 243 243 242 240 239 241 242 244 244 245 242 239 238 237 236 237 239 243 247 250 254 257 262 269 276 283 289 295 297 298 297 298 299 301 305 308 310 313 316 319 323 325
243 245 244 245 246 245 246 247 247 246 246 247 247 244 242 241 240 241 243 246 249 253 257 259 264 270 275 281 287 291 293 294 295 296 297 300 303 306 309 312 314 317 319 320
243 245 246 247 248 248 249 250 250 250 249 249 250 249 246 245 244 245 246 249 251 254 258 261 265 270 274 279 285 288 289 291 292 293 295 296 299 302 306 309 311 313 314 315
246 245 246 247 248 249 250 251 252 252 252 251 250 250 250 248 247 247 248 249 251 254 258 262 265 269 272 277 282 285 287 288 289 290 292 294 295 298 302 305 307 308 310 311
247 247 246 246 247 248 249 252 253 254 254 253 252 251 250 249 248 247 248 250 251 253 257 260 264 268 271 275 280 282 284 286 286 288 289 291 293 296 298 300 302 304 306 308